TimeCDT,TemperatureF,Dew PointF,Humidity,Sea Level PressureIn,VisibilityMPH,Wind Direction,Wind SpeedMPH,Gust SpeedMPH,PrecipitationIn,Events,Conditions,WindDirDegrees,DateUTC
12:53 AM,62.1,52.0,70,29.71,10.0,SE,15.0,-,N/A,,Clear,140,2013-09-26 05:53:00
1:53 AM,61.0,52.0,72,29.70,10.0,SE,11.5,-,N/A,,Clear,140,2013-09-26 06:53:00
2:53 AM,61.0,52.0,72,29.68,10.0,SE,15.0,-,N/A,,Clear,140,2013-09-26 07:53:00
3:53 AM,61.0,52.0,72,29.68,10.0,SE,16.1,-,N/A,,Clear,140,2013-09-26 08:53:00
4:53 AM,61.0,52.0,72,29.65,10.0,SE,16.1,-,N/A,,Clear,130,2013-09-26 09:53:00
5:53 AM,61.0,52.0,72,29.65,10.0,SE,16.1,-,N/A,,Mostly Cloudy,140,2013-09-26 10:53:00
6:53 AM,61.0,53.1,75,29.64,10.0,SE,15.0,-,N/A,,Mostly Cloudy,130,2013-09-26 11:53:00
7:53 AM,63.0,54.0,72,29.65,10.0,SE,19.6,-,N/A,,Mostly Cloudy,140,2013-09-26 12:53:00
8:53 AM,64.0,54.0,70,29.64,10.0,SSE,18.4,25.3,N/A,,Scattered Clouds,150,2013-09-26 13:53:00
9:53 AM,66.0,55.0,68,29.62,10.0,SSE,20.7,-,N/A,,Scattered Clouds,150,2013-09-26 14:53:00
10:53 AM,71.1,57.0,61,29.61,10.0,SSE,18.4,27.6,N/A,,Scattered Clouds,160,2013-09-26 15:53:00
11:53 AM,73.0,57.0,57,29.60,10.0,South,21.9,28.8,N/A,,Overcast,170,2013-09-26 16:53:00
12:53 PM,75.0,57.0,53,29.60,10.0,South,21.9,29.9,N/A,,Overcast,180,2013-09-26 17:53:00
1:53 PM,75.0,57.0,53,29.60,10.0,South,23.0,32.2,N/A,,Mostly Cloudy,190,2013-09-26 18:53:00
2:53 PM,75.0,57.0,53,29.61,10.0,South,20.7,28.8,N/A,,Mostly Cloudy,180,2013-09-26 19:53:00
3:53 PM,75.9,57.9,54,29.61,10.0,South,11.5,-,N/A,,Overcast,190,2013-09-26 20:53:00
4:53 PM,78.1,57.9,50,29.62,10.0,South,17.3,21.9,N/A,,Overcast,190,2013-09-26 21:53:00
5:53 PM,77.0,57.9,52,29.64,10.0,SSW,6.9,-,N/A,,Mostly Cloudy,210,2013-09-26 22:53:00
6:53 PM,73.9,59.0,59,29.65,10.0,WSW,6.9,-,N/A,,Mostly Cloudy,240,2013-09-26 23:53:00
7:53 PM,71.1,59.0,66,29.67,10.0,SW,4.6,-,N/A,,Mostly Cloudy,230,2013-09-27 00:53:00
8:53 PM,64.9,57.9,78,29.70,10.0,WNW,5.8,-,N/A,,Partly Cloudy,290,2013-09-27 01:53:00
9:53 PM,63.0,54.0,72,29.72,10.0,NW,9.2,-,N/A,,Clear,310,2013-09-27 02:53:00
10:53 PM,57.9,53.1,84,29.75,10.0,NNW,5.8,-,N/A,,Clear,340,2013-09-27 03:53:00
11:53 PM,57.0,51.1,81,29.76,10.0,Calm,Calm,-,N/A,,Clear,0,2013-09-27 04:53:00